| time (UTC) | temp F | wind direction | speed MPH | gust MPH | rain 1hr in | rain 24hr in | rain mn in | humidity % | barometer mb |
| 20260505003050 | 56 | 302 | 0.0 | 2.0 | 0.00 | 0.06 | 0.00 | 94 | 1010.3 |
| 20260505001552 | 56 | 326 | 0.0 | 2.0 | 0.00 | 0.06 | 0.00 | 94 | 1010.4 |
| 20260505000108 | 56 | 48 | 0.0 | 2.0 | 0.00 | 0.06 | 0.00 | 94 | 1010.5 |
| 20260504234554 | 56 | 304 | 2.0 | 4.0 | 0.00 | 0.06 | 0.00 | 94 | 1010.5 |
| 20260504233106 | 55 | 0 | 1.0 | 8.0 | 0.00 | 0.06 | 0.00 | 94 | 1010.3 |
| 20260504231557 | 56 | 360 | 0.0 | 3.0 | 0.00 | 0.06 | 0.00 | 94 | 1010.3 |
| 20260504230106 | 56 | 0 | 0.0 | 1.0 | 0.00 | 0.06 | 0.00 | 94 | 1010.7 |
| 20260504224554 | 56 | 0 | 0.0 | 2.0 | 0.00 | 0.06 | 0.00 | 94 | 1011.0 |
| 20260504223058 | 56 | 300 | 0.0 | 1.0 | 0.00 | 0.06 | 0.00 | 94 | 1011.2 |
| 20260504221552 | 56 | 0 | 0.0 | 3.0 | 0.00 | 0.06 | 0.00 | 94 | 1011.3 |
| 20260504220050 | 56 | 0 | 0.0 | 2.0 | 0.00 | 0.06 | 0.00 | 94 | 1011.4 |
| 20260504214606 | 56 | 0 | 0.0 | 1.0 | 0.00 | 0.06 | 0.06 | 93 | 1011.6 |
| 20260504213059 | 56 | 335 | 0.0 | 4.0 | 0.00 | 0.06 | 0.06 | 93 | 1011.7 |
| 20260504211556 | 56 | 0 | 0.0 | 1.0 | 0.00 | 0.06 | 0.06 | 93 | 1011.7 |
| 20260504210051 | 56 | 0 | 0.0 | 0.0 | 0.00 | 0.06 | 0.06 | 93 | 1011.8 |
| 20260504204553 | 56 | 0 | 0.0 | 1.0 | 0.00 | 0.06 | 0.06 | 93 | 1011.7 |
| 20260504203103 | 56 | 0 | 0.0 | 1.0 | 0.00 | 0.06 | 0.06 | 93 | 1011.7 |
| 20260504201613 | 56 | 0 | 0.0 | 1.0 | 0.00 | 0.06 | 0.06 | 93 | 1011.7 |
| 20260504200055 | 56 | 0 | 0.0 | 1.0 | 0.00 | 0.06 | 0.06 | 93 | 1011.8 |
| 20260504194553 | 57 | 0 | 0.0 | 1.0 | 0.00 | 0.06 | 0.06 | 93 | 1011.9 |
| 20260504193052 | 57 | 0 | 0.0 | 2.0 | 0.00 | 0.06 | 0.06 | 93 | 1011.9 |
| 20260504191559 | 57 | 0 | 0.0 | 3.0 | 0.00 | 0.06 | 0.06 | 92 | 1011.8 |
| 20260504190110 | 57 | 0 | 0.0 | 1.0 | 0.00 | 0.06 | 0.06 | 92 | 1011.7 |
| 20260504184641 | 57 | 0 | 0.0 | 0.0 | 0.00 | 0.07 | 0.06 | 92 | 1011.7 |
| 20260504183053 | 57 | 0 | 0.0 | 3.0 | 0.00 | 0.07 | 0.06 | 92 | 1011.6 |
| 20260504181559 | 57 | 0 | 0.0 | 1.0 | 0.00 | 0.07 | 0.06 | 91 | 1011.5 |
| 20260504180055 | 57 | 0 | 0.0 | 2.0 | 0.00 | 0.07 | 0.06 | 91 | 1011.5 |
| 20260504174556 | 57 | 0 | 0.0 | 0.0 | 0.00 | 0.07 | 0.06 | 90 | 1011.5 |
| 20260504173056 | 58 | 0 | 0.0 | 0.0 | 0.00 | 0.07 | 0.06 | 90 | 1011.4 |
| 20260504171600 | 58 | 0 | 0.0 | 0.0 | 0.00 | 0.07 | 0.06 | 90 | 1011.4 |
| 20260504160104 | 57 | 0 | 0.0 | 1.0 | 0.03 | 0.07 | 0.05 | 88 | 1011.6 |
| 20260504140107 | 59 | 0 | 0.0 | 3.0 | 0.00 | 0.03 | 0.01 | 88 | 1012.2 |
| 20260504120108 | 58 | 340 | 1.0 | 4.0 | 0.00 | 0.02 | 0.00 | 87 | 1012.6 |
| 20260504081550 | 56 | 0 | 0.0 | 0.0 | 0.00 | 0.03 | 0.00 | 92 | 1013.0 |
| 20260504080104 | 56 | 0 | 0.0 | 0.0 | 0.00 | 0.03 | 0.00 | 92 | 1013.0 |
| 20260504044551 | 54 | 0 | 0.0 | 2.0 | 0.00 | 0.14 | 0.00 | 93 | 1011.9 |
| 20260504043051 | 54 | 0 | 0.0 | 1.0 | 0.00 | 0.14 | 0.00 | 93 | 1011.9 |
| 20260504041549 | 54 | 0 | 0.0 | 1.0 | 0.00 | 0.14 | 0.00 | 93 | 1011.8 |
| 20260504040052 | 54 | 0 | 0.0 | 2.0 | 0.00 | 0.14 | 0.00 | 93 | 1012.0 |
| 20260504034546 | 55 | 0 | 0.0 | 0.0 | 0.00 | 0.16 | 0.00 | 93 | 1012.0 |
| 20260504033059 | 54 | 0 | 0.0 | 0.0 | 0.00 | 0.16 | 0.00 | 93 | 1012.1 |
| 20260504031600 | 54 | 0 | 0.0 | 0.0 | 0.00 | 0.16 | 0.00 | 93 | 1012.2 |
| 20260504030051 | 54 | 0 | 0.0 | 0.0 | 0.00 | 0.16 | 0.00 | 92 | 1012.3 |
| 20260504024558 | 54 | 0 | 0.0 | 0.0 | 0.00 | 0.16 | 0.00 | 93 | 1012.3 |
| 20260504023050 | 54 | 0 | 0.0 | 0.0 | 0.00 | 0.16 | 0.00 | 93 | 1012.3 |
| 20260504021552 | 54 | 0 | 0.0 | 0.0 | 0.00 | 0.16 | 0.00 | 92 | 1012.1 |
| 20260504020050 | 54 | 0 | 0.0 | 0.0 | 0.00 | 0.16 | 0.00 | 92 | 1012.3 |
| 20260504014549 | 54 | 0 | 0.0 | 0.0 | 0.00 | 0.16 | 0.00 | 92 | 1012.1 |
| 20260504013103 | 54 | 0 | 0.0 | 2.0 | 0.00 | 0.16 | 0.00 | 92 | 1012.3 |
| 20260504011552 | 54 | 128 | 0.0 | 0.0 | 0.00 | 0.16 | 0.00 | 91 | 1012.2 |
| 20260504010050 | 54 | 0 | 0.0 | 0.0 | 0.00 | 0.16 | 0.00 | 91 | 1012.2 |
| 20260504004600 | 54 | 0 | 0.0 | 0.0 | 0.00 | 0.16 | 0.00 | 91 | 1012.3 |